Weather History for FAGG - February, 2014

Change the Weather History Date:

Saturday, February 1, 2014

  Actual Average Record
Temperature  
Mean Temperature 76 °F -  
Max Temperature 88 °F 74 °F 88 °F (2014)
Min Temperature 63 °F 59 °F 50 °F (2001)
Cooling Degree Days 10    
Growing Degree Days 26 (Base 50)    
Moisture  
Dew Point 64 °F    
Average Humidity 76    
Maximum Humidity 88    
Minimum Humidity 41    
Precipitation  
Precipitation 0.01 in - - ()
Sea Level Pressure  
Sea Level Pressure 29.78 in    
Wind  
Wind Speed 9 mph ()    
Max Wind Speed 21 mph    
Max Gust Speed -    
Visibility 8.2 miles    
Events      
Averages and records for this station are not official NWS values.
T = Trace of Precipitation, MM = Missing Value Source: Averaged Metar Reports

Daily Weather History Graph

Daily Weather History Graph

Search for Another Location

Airport or City:

Trip Planner

Search our weather history database for the weather conditions in past years. The results will help you decide how hot, cold, wet, or windy it might be!

Date:

Astronomy

Feb. 01, 2014 Rise Set
Actual Time 5:51 AM SAST 7:35 PM SAST
Civil Twilight 5:24 AM SAST 8:03 PM SAST
Nautical Twilight 4:51 AM SAST 8:35 PM SAST
Astronomical Twilight 4:17 AM SAST 9:10 PM SAST
Moon 7:33 AM SAST (2/1) 8:30 PM SAST (2/1)
Length of Visible Light 14h 38m
Length of Day
13h 44m
Waxing Crescent, 3% of the Moon is Illuminated
Feb 1
Waxing Crescent
Feb 6
First Quarter
Feb 15
Full
Feb 22
Last Quarter
Mar 1
New

Hourly Weather History & Observations

Time (SAST) Temp. Heat Index Dew Point Humidity Pressure Visibility Wind Dir Wind Speed Gust Speed Precip Events Conditions
2:00 AM 64 °F - 60 °F 84% 29.72 in 12 mi North 3.5 mph - -  
4:00 AM 64.4 °F - 60.8 °F 88% 29.68 in - Variable 2.3 mph - N/A   Clear
5:00 AM 64 °F - 61 °F 87% 29.69 in 12 mi West 5.8 mph - -   Scattered Clouds
5:00 AM 64.4 °F - 60.8 °F 88% 29.68 in 6.2 mi West 3.5 mph - N/A   Partly Cloudy
6:00 AM 64.4 °F - 60.8 °F 88% 29.68 in - NW 5.8 mph - N/A   Clear
8:00 AM 71 °F - 64 °F 72% 29.70 in 12 mi WNW 5.8 mph - -  
8:00 AM 71.6 °F - 64.4 °F 78% 29.71 in - WNW 3.5 mph - N/A   Clear
9:00 AM 78.8 °F - 66.2 °F 65% 29.71 in - West 10.4 mph - N/A   Clear
10:00 AM 82.4 °F 85.4 °F 68.0 °F 62% 29.71 in - WNW 11.5 mph - N/A   Clear
11:00 AM 88 °F - 67 °F 41% 29.71 in 12 mi WSW 11.5 mph - -  
12:00 PM 77.0 °F - 64.4 °F 65% 29.77 in 6.2 mi SSW 20.7 mph - N/A   Partly Cloudy
1:00 PM 77.0 °F - 68.0 °F 74% 29.80 in 6.2 mi SW 15.0 mph - N/A   Partly Cloudy
2:00 PM 77 °F - 66 °F 60% 29.77 in 12 mi SW 18.4 mph - -   Scattered Clouds
2:00 PM 77.0 °F - 66.2 °F 69% 29.80 in 6.2 mi SW 17.3 mph - N/A   Partly Cloudy
3:00 PM 75.2 °F - 66.2 °F 73% 29.80 in 6.2 mi SW 16.1 mph - N/A   Scattered Clouds
4:00 PM 73.4 °F - 66.2 °F 78% 29.80 in 6.2 mi SW 20.7 mph - N/A   Mostly Cloudy
5:00 PM 72 °F - 65 °F 72% 29.80 in 12 mi SW 20.7 mph - -   Mostly Cloudy
5:00 PM 71.6 °F - 66.2 °F 83% 29.80 in 6.2 mi SW 20.7 mph - N/A   Mostly Cloudy
6:00 PM 71.6 °F - 66.2 °F 83% 29.83 in 6.2 mi SW 16.1 mph - N/A   Mostly Cloudy
7:00 PM 71.6 °F - 64.4 °F 78% 29.86 in 6.2 mi SW 13.8 mph - N/A   Mostly Cloudy
8:00 PM 71 °F - 64 °F 74% 29.88 in 12 mi SW 10.4 mph - -   Mostly Cloudy
8:00 PM 71.6 °F - 64.4 °F 78% 29.89 in 6.2 mi SW 10.4 mph - N/A   Mostly Cloudy
9:00 PM 69.8 °F - 64.4 °F 83% 29.92 in 6.2 mi WSW 6.9 mph - N/A   Overcast
10:00 PM 68.0 °F - 64.4 °F 88% 29.95 in 6.2 mi WSW 12.7 mph - N/A   Mostly Cloudy
11:00 PM 68.0 °F - 62.6 °F 83% 29.95 in 6.2 mi West 12.7 mph - N/A   Mostly Cloudy